Regional Weather Roundup
Issued by NWS

Home | Current Version | Previous Version | Graphics & Text | Print | Product List | Glossary On
Versions: 1 2 3 4 5 6 7 8 9 10 11 12 13 14 15 16 17 18 19 20 21 22 23 24 25 26 27 28 29 30 31 32 33 34 35 36 37 38 39 40 41 42 43 44 45 46 47 48 49 50
000
ASUS43 KTOP 182159
RWRKS

WEATHER ROUNDUP FOR KANSAS
NATIONAL WEATHER SERVICE GOODLAND KS
400 PM CST THU DEC 18 2014

NOTE:  "FAIR" INDICATES FEW OR NO CLOUDS BELOW 12,000 FEET WITH NO
SIGNIFICANT WEATHER AND/OR OBSTRUCTIONS TO VISIBILITY.

KSZ001>006-013>018-027>032-041>047-182300-
NORTHWEST KANSAS

CITY           SKY/WX    TMP DP  RH WIND       PRES   REMARKS
GOODLAND       SUNNY     42  29  59 NW6       30.05S
HAYS           CLOUDY    34  23  64 CALM      30.14S
HILL CITY      CLOUDY    32  27  81 SW6       30.13S
RUSSELL        CLOUDY    31  28  89 E5        30.14S
$$

KSZ061>065-074>080-084>089-182300-
SOUTHWEST KANSAS

CITY           SKY/WX    TMP DP  RH WIND       PRES   REMARKS
DODGE CITY     CLOUDY    34  29  82 CALM      30.12R
ELKHART          N/A     39  27  62 SE6         N/A
GARDEN CITY    CLOUDY    34  30  85 S3        30.10R
GREAT BEND     CLOUDY    30  25  80 NE5       30.16S
LIBERAL        CLOUDY    36  30  80 NE5       30.12S
$$

KSZ066>073-081>083-090>101-182300-
SOUTHEAST KANSAS

CITY           SKY/WX    TMP DP  RH WIND       PRES   REMARKS
CHANUTE        CLOUDY    34  33  96 N5        30.18R FOG
COFFEYVILLE    CLOUDY    39  36  89 N8        30.17S
HUTCHINSON     CLOUDY    33  28  81 N6        30.17R
MEDICINE LODGE   N/A     36  32  85 N6        30.16R
NEWTON         CLOUDY    30  25  80 N8        30.18R
PARSONS        CLOUDY    38  36  92 N5        30.19R
WICHITA INTL   CLOUDY    35  29  78 N8        30.17R
WICHITA JABRA  CLOUDY    33  30  88 N8        30.16S
WINFIELD       CLOUDY    36  34  92 N7        30.18R
$$

KSZ007>012-019>026-033>040-048>060-102>105-182300-
NORTHEAST KANSAS

CITY           SKY/WX    TMP DP  RH WIND       PRES   REMARKS
CONCORDIA      CLOUDY    31  26  82 CALM      30.18R
EMPORIA        CLOUDY    32  29  88 NW5       30.18R
LAWRENCE       CLOUDY    33  29  85 NE3       30.21R FOG
MANHATTAN      CLOUDY    33  30  88 E3        30.20R
OLATHE IND     CLOUDY    33  30  88 CALM      30.19R FOG
OLATHE EXE     CLOUDY    33  31  92 NE5       30.18R FOG
SALINA         CLOUDY    32  27  81 NW3       30.20R
TOPEKA BILLARD CLOUDY    33  30  88 N5        30.21R
TOPEKA FORBES  CLOUDY    34  29  82 N5        30.19R
$$



USA.gov is the U.S. government's official web portal to all federal, state and local government web resources and services.